When you browse on this site, cookies collect data to enhance your experience and personalize the content and advertising you see.
Visit our Privacy Policy to learn more. By continuing to use the site, you agree to this use of cookies and data.
  • In Hungary
  • List of Countries
  • For 7 days
  • Water Temperature
  • Satellite Maps
  • Weather Map
  • News
  • Weather Widgets
  • user-avatar
    Login

    Hourly Weather Challans

    Today, 20 March, Wednesday

    Time Temperature Precipitation Wind Pressure Humidity
    00:00 +6°C° 0 mm 1 mps 774 mmHg 91%
    01:00 +6°C° 0 mm 1 mps 773 mmHg 91%
    02:00 +6°C° 0 mm 1 mps 773 mmHg 91%
    03:00 +6°C° 0 mm 1 mps 773 mmHg 91%
    04:00 +6°C° 0 mm 1 mps 774 mmHg 91%
    05:00 +6°C° 0 mm 1 mps 774 mmHg 90%
    06:00 +6°C° 0 mm 1 mps 774 mmHg 90%
    07:00 +7°C° 0 mm 1 mps 774 mmHg 86%
    08:00 +9°C° 0 mm 1 mps 774 mmHg 83%
    09:00 +10°C° 0 mm 1 mps 774 mmHg 79%
    10:00 +12°C° 0 mm 1 mps 774 mmHg 76%
    11:00 +13°C° 0 mm 1 mps 775 mmHg 72%
    12:00 +14°C° 0 mm 1 mps 775 mmHg 69%
    13:00 +14°C° 0 mm 1 mps 775 mmHg 72%
    14:00 +14°C° 0 mm 2 mps 774 mmHg 75%
    15:00 +12°C° 0 mm 3 mps 774 mmHg 77%
    16:00 +12°C° 0 mm 3 mps 774 mmHg 81%
    17:00 +11°C° 0 mm 3 mps 774 mmHg 85%
    18:00 +10°C° 0 mm 3 mps 774 mmHg 88%
    19:00 +10°C° 0 mm 3 mps 774 mmHg 90%
    20:00 +9°C° 0 mm 3 mps 774 mmHg 91%
    21:00 +9°C° 0 mm 2 mps 774 mmHg 93%
    22:00 +9°C° 0 mm 2 mps 774 mmHg 92%
    23:00 +9°C° 0 mm 2 mps 774 mmHg 92%

    Tomorrow, 21 March, Thursday

    Time Temperature Precipitation Wind Pressure Humidity
    00:00 +9°C° 0 mm 2 mps 775 mmHg 92%
    01:00 +8°C° 0 mm 2 mps 774 mmHg 92%
    02:00 +7°C° 0 mm 2 mps 774 mmHg 92%
    03:00 +7°C° 0 mm 3 mps 774 mmHg 92%
    04:00 +5°C° 0 mm 3 mps 774 mmHg 92%
    05:00 +5°C° 0 mm 3 mps 774 mmHg 92%
    06:00 +6°C° 0 mm 2 mps 774 mmHg 92%
    07:00 +7°C° 0 mm 2 mps 774 mmHg 88%
    08:00 +9°C° 0 mm 2 mps 774 mmHg 85%
    09:00 +12°C° 0 mm 2 mps 774 mmHg 81%
    10:00 +12°C° 0 mm 3 mps 774 mmHg 77%
    11:00 +13°C° 0 mm 3 mps 774 mmHg 73%
    12:00 +14°C° 0 mm 3 mps 774 mmHg 70%
    13:00 +14°C° 0 mm 3 mps 773 mmHg 71%
    14:00 +16°C° 0 mm 3 mps 773 mmHg 72%
    15:00 +16°C° 0 mm 3 mps 772 mmHg 73%
    16:00 +14°C° 0 mm 3 mps 772 mmHg 76%
    17:00 +13°C° 0 mm 3 mps 772 mmHg 79%
    18:00 +12°C° 0 mm 3 mps 771 mmHg 83%
    19:00 +11°C° 0 mm 3 mps 772 mmHg 86%
    20:00 +10°C° 0 mm 3 mps 772 mmHg 89%
    21:00 +9°C° 0 mm 3 mps 772 mmHg 92%
    22:00 +9°C° 0 mm 3 mps 772 mmHg 92%
    23:00 +8°C° 0 mm 3 mps 772 mmHg 92%

    Day after tomorrow, 22 March, Friday

    Time Temperature Precipitation Wind Pressure Humidity
    00:00 +8°C° 0 mm 3 mps 771 mmHg 92%
    01:00 +7°C° 0 mm 3 mps 771 mmHg 91%
    02:00 +7°C° 0 mm 3 mps 771 mmHg 89%
    03:00 +5°C° 0 mm 3 mps 771 mmHg 88%
    04:00 +5°C° 0 mm 3 mps 770 mmHg 88%
    05:00 +4°C° 0 mm 3 mps 770 mmHg 88%
    06:00 +4°C° 0 mm 3 mps 770 mmHg 87%
    07:00 +7°C° 0 mm 2 mps 770 mmHg 83%
    08:00 +8°C° 0 mm 2 mps 771 mmHg 79%
    09:00 +10°C° 0 mm 2 mps 771 mmHg 75%
    10:00 +12°C° 0 mm 2 mps 771 mmHg 72%
    11:00 +14°C° 0 mm 1 mps 771 mmHg 69%
    12:00 +15°C° 0 mm 1 mps 771 mmHg 66%
    13:00 +15°C° 0 mm 1 mps 770 mmHg 66%
    14:00 +15°C° 0 mm 1 mps 770 mmHg 66%
    15:00 +15°C° 0 mm 2 mps 770 mmHg 66%
    16:00 +14°C° 0 mm 2 mps 770 mmHg 71%
    17:00 +13°C° 0 mm 2 mps 770 mmHg 77%
    18:00 +11°C° 0 mm 1 mps 770 mmHg 83%
    19:00 +10°C° 0 mm 1 mps 770 mmHg 84%
    20:00 +10°C° 0 mm 1 mps 771 mmHg 86%
    21:00 +9°C° 0 mm 1 mps 771 mmHg 87%
    22:00 +8°C° 0 mm 1 mps 771 mmHg 87%
    23:00 +7°C° 0 mm 2 mps 771 mmHg 88%

    23 March, Saturday

    Time Temperature Precipitation Wind Pressure Humidity
    00:00 +7°C° 0 mm 2 mps 771 mmHg 88%
    01:00 +7°C° 0 mm 2 mps 771 mmHg 89%
    02:00 +7°C° 0 mm 2 mps 771 mmHg 89%
    03:00 +6°C° 0 mm 2 mps 771 mmHg 90%
    04:00 +6°C° 0 mm 2 mps 771 mmHg 90%
    05:00 +6°C° 0 mm 2 mps 771 mmHg 90%
    06:00 +6°C° 0 mm 2 mps 771 mmHg 90%
    07:00 +8°C° 0 mm 2 mps 771 mmHg 86%
    08:00 +10°C° 0 mm 2 mps 771 mmHg 83%
    09:00 +11°C° 0 mm 3 mps 771 mmHg 79%
    10:00 +14°C° 0 mm 2 mps 771 mmHg 74%
    11:00 +15°C° 0 mm 2 mps 771 mmHg 69%
    12:00 +16°C° 0 mm 2 mps 771 mmHg 64%
    13:00 +17°C° 0 mm 2 mps 770 mmHg 63%
    14:00 +18°C° 0 mm 1 mps 770 mmHg 63%
    15:00 +19°C° 0 mm 1 mps 769 mmHg 62%
    16:00 +16°C° 0 mm 2 mps 769 mmHg 67%
    17:00 +15°C° 0 mm 2 mps 769 mmHg 73%
    18:00 +13°C° 0 mm 3 mps 769 mmHg 78%
    19:00 +12°C° 0 mm 3 mps 769 mmHg 82%
    20:00 +11°C° 0 mm 3 mps 770 mmHg 85%
    21:00 +10°C° 0 mm 3 mps 770 mmHg 88%
    22:00 +9°C° 0 mm 3 mps 770 mmHg 89%
    23:00 +9°C° 0 mm 3 mps 769 mmHg 90%

    24 March, Sunday

    Time Temperature Precipitation Wind Pressure Humidity
    00:00 +8°C° 0 mm 3 mps 769 mmHg 91%
    01:00 +8°C° 0 mm 3 mps 769 mmHg 91%
    02:00 +8°C° 0 mm 3 mps 769 mmHg 92%
    03:00 +8°C° 0 mm 3 mps 769 mmHg 92%
    04:00 +6°C° 0 mm 4 mps 769 mmHg 93%
    05:00 +6°C° 0 mm 4 mps 769 mmHg 94%
    06:00 +6°C° 0 mm 4 mps 769 mmHg 94%
    07:00 +7°C° 0 mm 4 mps 769 mmHg 92%
    08:00 +10°C° 0 mm 4 mps 770 mmHg 90%
    09:00 +12°C° 0 mm 5 mps 770 mmHg 88%
    10:00 +13°C° 0 mm 5 mps 770 mmHg 84%
    11:00 +14°C° 0 mm 5 mps 770 mmHg 80%
    12:00 +15°C° 0 mm 5 mps 770 mmHg 76%
    13:00 +15°C° 0 mm 5 mps 769 mmHg 75%
    14:00 +16°C° 0 mm 5 mps 769 mmHg 74%
    15:00 +16°C° 0 mm 5 mps 769 mmHg 73%
    16:00 +15°C° 0 mm 5 mps 769 mmHg 76%
    17:00 +14°C° 0 mm 5 mps 769 mmHg 80%
    18:00 +14°C° 0 mm 5 mps 769 mmHg 83%
    19:00 +13°C° 0 mm 5 mps 769 mmHg 85%
    20:00 +11°C° 0 mm 6 mps 770 mmHg 86%
    21:00 +10°C° 0 mm 6 mps 770 mmHg 87%
    22:00 +9°C° 0 mm 6 mps 770 mmHg 84%
    23:00 +8°C° 0 mm 6 mps 770 mmHg 81%

    25 March, Monday

    Time Temperature Precipitation Wind Pressure Humidity
    00:00 +8°C° 0 mm 7 mps 770 mmHg 78%
    01:00 +6°C° 0 mm 7 mps 770 mmHg 78%
    02:00 +5°C° 0 mm 7 mps 770 mmHg 78%
    03:00 +5°C° 0 mm 7 mps 770 mmHg 79%
    04:00 +4°C° 0 mm 6 mps 770 mmHg 77%
    05:00 +4°C° 0 mm 6 mps 770 mmHg 75%
    06:00 +3°C° 0 mm 6 mps 770 mmHg 73%
    07:00 +4°C° 0 mm 7 mps 770 mmHg 70%
    08:00 +5°C° 0 mm 7 mps 770 mmHg 67%
    09:00 +6°C° 0 mm 7 mps 770 mmHg 65%
    10:00 +9°C° 0 mm 7 mps 770 mmHg 63%
    11:00 +10°C° 0 mm 7 mps 770 mmHg 61%
    12:00 +11°C° 0 mm 7 mps 770 mmHg 60%
    13:00 +12°C° 0 mm 7 mps 770 mmHg 62%
    14:00 +12°C° 0 mm 7 mps 770 mmHg 63%
    15:00 +14°C° 0 mm 7 mps 769 mmHg 65%
    16:00 +12°C° 0 mm 7 mps 769 mmHg 70%
    17:00 +11°C° 0 mm 6 mps 769 mmHg 75%
    18:00 +10°C° 0 mm 5 mps 769 mmHg 80%
    19:00 +9°C° 0 mm 5 mps 770 mmHg 83%
    20:00 +8°C° 0 mm 5 mps 770 mmHg 85%
    21:00 +7°C° 0 mm 5 mps 770 mmHg 88%
    22:00 +7°C° 0 mm 5 mps 771 mmHg 88%
    23:00 +5°C° 0 mm 6 mps 771 mmHg 88%
    Show more